Location: *
(43.4667°N, 11.6833°E)
Time: 00:27:57
(UTC+00:00)

Spot 4 - Pass Details

Date: 19 July 2019
Orbit: 705 x 723 km, 98.3° (Epoch: 21 August)

Event Time Altitude Azimuth Distance (km) Brightness Sun altitude
Exits shadow 22:28:03 54° 243° (WSW) 860 4.1 -24.7°
Maximum altitude 22:28:22 55° 260° (W) 849 4.1 -24.7°
Drops below altitude 10° 22:33:04 10° 338° (NNW) 2,187 7.4 -24.9°
Sets 22:35:23 0° 343° (NNW) 3,109 8.5 -25.0°
